OK1VOF-13 Weather Reports


time (UTC)temp
C
wind
direction
speed
KPH
gust
KPH
rain 1hr
cm
rain 24hr
cm
rain mn
cm
humidity
%
barometer
mb
20260507002044 15 180 0.0 0.0 0.00 2.77 0.00 66 1008.1
20260507001545 15 180 0.0 0.0 0.00 2.77 0.00 65 1008.1
20260507001046 15 180 0.0 0.0 0.00 2.77 0.00 65 1008.0
20260507000552 15 180 0.0 0.0 0.00 2.77 0.00 65 1007.8
20260507000547 15 180 0.0 0.0 0.00 2.77 0.00 65 1007.8
20260507000048 15 180 0.0 0.0 0.00 2.77 0.00 65 1008.0
20260506235550 15 180 0.0 0.0 0.00 2.77 0.00 66 1008.2
20260506235051 14 180 0.0 0.0 0.00 2.77 0.00 66 1008.1
20260506234557 14 180 0.0 0.0 0.00 2.77 0.00 67 1008.1
20260506234552 14 180 0.0 0.0 0.00 2.77 0.00 67 1008.1
20260506234054 14 180 0.0 0.0 0.00 2.77 0.00 66 1008.1
20260506233554 14 180 0.0 0.0 0.00 2.77 0.00 66 1008.1
20260506233056 14 180 0.0 0.0 0.00 2.77 0.00 66 1008.0
20260506232557 14 176 0.0 1.6 0.00 2.77 0.00 66 1008.0
20260506232058 15 180 1.6 3.2 0.00 2.77 0.00 66 1008.2
20260506231559 15 333 1.6 3.2 0.00 2.77 0.00 66 1008.0
20260506231101 15 302 1.6 3.2 0.00 2.77 0.00 65 1008.2
20260506230602 15 49 0.0 1.6 0.00 2.77 0.00 64 1008.2
20260506230103 15 49 1.6 3.2 0.00 2.77 0.00 63 1008.2
20260506225604 15 104 1.6 4.8 0.00 2.77 0.00 63 1008.1
20260506225110 15 67 1.6 4.8 0.00 2.77 0.00 62 1008.2
20260506225105 15 67 1.6 4.8 0.00 2.77 0.00 62 1008.2
20260506224612 16 101 3.2 4.8 0.00 0.00 0.00 62 1008.1
20260506224607 16 101 3.2 4.8 0.00 2.77 0.00 62 1008.1
20260506224108 16 50 1.6 4.8 0.00 2.77 0.00 63 1007.9
20260506223614 16 24 1.6 1.6 0.00 2.77 0.00 62 1007.7
20260506223609 16 24 1.6 1.6 0.00 2.77 0.00 62 1007.7
20260506223110 16 0 0.0 0.0 0.00 2.77 0.00 62 1007.5
20260506222612 16 0 0.0 1.6 0.00 2.77 0.00 62 1007.5
20260506222114 16 0 0.0 0.0 0.00 2.77 0.00 61 1007.4
20260506221619 16 0 0.0 0.0 0.00 2.77 0.00 62 1007.2
20260506221614 16 0 0.0 0.0 0.00 2.77 0.00 62 1007.2
20260506221115 16 0 0.0 0.0 0.00 2.77 0.00 61 1007.1
20260506220621 16 0 0.0 1.6 0.00 2.77 0.00 61 1007.0
20260506220616 16 0 0.0 1.6 0.00 2.77 0.00 61 1007.0
20260506220118 16 0 0.0 0.0 0.00 2.77 0.00 60 1006.7
20260506215624 16 0 0.0 0.0 0.00 2.77 0.00 59 1006.6
20260506215619 16 0 0.0 0.0 0.00 2.77 0.00 59 1006.6
20260506215120 16 0 0.0 0.0 0.00 2.77 0.00 59 1006.5
20260506214626 16 0 0.0 0.0 0.00 2.77 0.00 60 1006.5
20260506214621 16 0 0.0 0.0 0.00 2.77 0.00 60 1006.5
20260506214123 16 0 0.0 0.0 0.00 2.77 0.00 60 1006.6
20260506213624 16 0 0.0 0.0 0.00 2.77 0.00 60 1006.6
20260506213125 16 0 0.0 0.0 0.00 2.77 0.00 59 1006.6
20260506212632 16 0 0.0 0.0 0.00 2.77 0.00 59 1006.6
20260506212626 16 0 0.0 0.0 0.00 2.77 0.00 59 1006.6
20260506212127 16 0 0.0 0.0 0.00 2.77 0.00 59 1006.6
20260506211629 16 0 0.0 0.0 0.00 2.77 0.00 59 1006.5
20260506211127 16 0 0.0 0.0 4.01 2.77 0.00 59 1006.5
20260506210625 16 0 0.0 0.0 4.01 2.77 0.00 59 1006.5
20260506210123 16 0 0.0 0.0 4.04 2.77 0.00 59 1006.6
20260506205621 16 0 0.0 0.0 4.04 2.77 0.00 59 1006.6
20260506205119 16 0 0.0 0.0 4.04 2.77 0.00 60 1006.6
20260506204617 16 0 0.0 0.0 4.04 2.77 0.00 60 1006.6
20260506204115 16 0 0.0 0.0 4.04 2.77 0.00 59 1006.7
20260506203614 16 0 0.0 0.0 4.04 2.77 0.00 59 1006.6
20260506203111 16 0 0.0 0.0 4.04 2.77 0.00 59 1006.6
20260506202614 16 0 0.0 0.0 4.04 2.77 0.00 59 1006.7
20260506202609 16 0 0.0 0.0 4.04 2.77 0.00 59 1006.7
20260506201610 16 358 3.2 38.6 4.04 2.77 0.00 60 1006.7
20260506201605 16 358 3.2 38.6 4.04 2.77 0.00 60 1006.7
20260506200603 16 2 0.0 0.0 0.03 23.90 0.00 59 1006.6
20260506200558 16 2 0.0 0.0 0.03 23.90 0.00 59 1006.6
20260506195102 16 0 0.0 0.0 0.00 23.88 0.00 59 1006.7
20260506194604 16 347 0.0 0.0 0.56 23.88 0.00 59 1006.7
20260506194559 16 347 0.0 0.0 0.56 23.88 0.00 59 1006.7
20260506194058 16 350 0.0 0.0 0.58 23.88 0.00 59 1006.8
20260506193556 16 7 0.0 1.6 0.58 23.88 0.00 60 1006.8
20260506193054 16 176 1.6 3.2 0.58 23.88 0.00 61 1006.8
20260506192553 16 174 0.0 1.6 0.58 23.88 0.00 60 1007.0
20260506192050 16 178 0.0 1.6 0.58 23.88 0.00 60 1007.0
20260506191548 17 133 1.6 4.8 0.58 23.88 0.00 60 1006.9
20260506191046 17 160 3.2 6.4 1.35 23.88 0.00 59 1006.7
20260506190544 17 49 1.6 4.8 10.49 23.88 0.00 58 1006.9
20260506190042 17 187 1.6 4.8 23.88 23.88 0.00 57 1007.0
20260506185540 17 218 8.0 48.3 23.88 23.88 0.00 57 1006.9
20260506185036 17 123 12.9 70.8 23.88 23.88 0.00 57 1006.9
20260506184534 17 201 11.3 35.4 23.32 23.32 0.00 56 1006.8
20260506184031 18 192 1.6 4.8 23.29 23.29 0.00 55 1006.5
20260506183529 18 151 3.2 3.2 23.29 23.29 0.00 55 1006.3
20260506182525 18 227 6.4 53.1 23.29 23.29 0.00 53 1006.1
20260506182023 18 230 4.8 56.3 23.29 23.29 0.00 53 1005.8
20260506181521 18 229 14.5 85.3 23.29 23.29 0.00 52 1005.8
20260506181017 19 255 38.6 172.2 22.53 22.53 0.00 52 1005.8
20260506180453 19 241 49.9 280.0 13.39 13.39 0.00 51 1005.7
20260506175933 20 225 0.0 1.6 0.00 0.00 0.00 50 1005.6
20260506175434 20 226 0.0 0.0 0.00 0.00 0.00 50 1005.6
20260506174935 20 226 0.0 1.6 0.00 0.00 0.00 49 1005.6
20260506174436 20 225 0.0 0.0 0.00 0.00 0.00 49 1005.6
20260506173942 20 225 0.0 0.0 0.00 0.00 0.00 47 1005.6
20260506173937 20 225 0.0 0.0 0.00 0.00 0.00 47 1005.6
20260506173444 21 193 1.6 3.2 0.00 0.00 0.00 47 1005.6
20260506173439 21 193 1.6 3.2 0.00 0.00 0.00 47 1005.6
20260506172945 21 180 1.6 1.6 0.00 0.00 0.00 45 1005.8
20260506172940 21 180 1.6 1.6 0.00 0.00 0.00 45 1005.8
20260506172446 22 180 1.6 3.2 0.00 0.00 0.00 44 1005.7
20260506172441 22 180 1.6 3.2 0.00 0.00 0.00 44 1005.7
20260506171942 22 180 0.0 0.0 0.00 0.00 0.00 42 1005.7
20260506171444 22 180 1.6 4.8 0.00 0.00 0.00 42 1005.7
20260506170945 23 180 3.2 4.8 0.00 0.00 0.00 41 1005.7
20260506170446 23 168 1.6 4.8 0.00 0.00 0.00 41 1005.8
20260506165947 22 127 1.6 6.4 0.00 0.00 0.00 42 1005.8
20260506165454 22 45 1.6 3.2 0.00 0.00 0.00 40 1005.9
20260506165448 22 45 1.6 3.2 0.00 0.00 0.00 40 1005.9
20260506164950 22 45 0.0 1.6 0.00 0.00 0.00 39 1005.7
20260506164451 22 45 0.0 1.6 0.00 0.00 0.00 38 1005.6
20260506163952 22 45 0.0 3.2 0.00 0.00 0.00 38 1005.6
20260506163458 23 45 1.6 1.6 0.00 0.00 0.00 38 1005.7
20260506163454 23 45 1.6 1.6 0.00 0.00 0.00 38 1005.7
20260506162959 23 45 1.6 1.6 0.00 0.00 0.00 38 1005.6
20260506162955 23 45 1.6 1.6 0.00 0.00 0.00 38 1005.6
20260506162501 23 86 1.6 3.2 0.00 0.00 0.00 37 1005.5
20260506162456 23 86 1.6 3.2 0.00 0.00 0.00 37 1005.5
20260506161957 23 90 1.6 1.6 0.00 0.00 0.00 37 1005.6
20260506161458 23 90 1.6 1.6 0.00 0.00 0.00 37 1005.6
20260506160959 23 62 3.2 4.8 0.00 0.00 0.00 37 1005.7
20260506160501 23 83 1.6 3.2 0.00 0.00 0.00 37 1005.8
20260506160002 23 49 3.2 4.8 0.00 0.00 0.00 37 1005.9
20260506155503 24 45 1.6 3.2 0.00 0.00 0.00 36 1006.0
20260506155004 24 45 1.6 3.2 0.00 0.00 0.00 37 1006.0
20260506154505 24 45 1.6 3.2 0.00 0.00 0.00 36 1006.2
20260506154007 24 45 1.6 3.2 0.00 0.00 0.00 36 1006.2
20260506153508 24 45 1.6 1.6 0.00 0.00 0.00 36 1006.1
20260506153009 24 69 3.2 3.2 0.00 0.00 0.00 35 1006.2
20260506152510 24 90 1.6 3.2 0.00 0.00 0.00 35 1006.3
20260506152011 23 90 1.6 1.6 0.00 0.00 0.00 36 1006.4
20260506151512 23 90 0.0 1.6 0.00 0.00 0.00 36 1006.4
20260506151014 23 90 1.6 3.2 0.00 0.00 0.00 36 1006.4
20260506150515 23 90 1.6 3.2 0.00 0.00 0.00 36 1006.5
20260506150016 23 45 1.6 3.2 0.00 0.00 0.00 35 1006.6
20260506145517 23 45 1.6 3.2 0.00 0.00 0.00 35 1006.6
20260506145018 23 45 1.6 1.6 0.00 0.00 0.00 35 1006.7
20260506144520 23 45 0.0 1.6 0.00 0.00 0.00 35 1006.6
20260506144021 24 45 0.0 1.6 0.00 0.00 0.00 34 1006.7
20260506143522 24 45 0.0 1.6 0.00 0.00 0.00 34 1006.7
20260506143023 25 45 0.0 1.6 0.00 0.00 0.00 33 1006.8
20260506142524 25 45 0.0 1.6 0.00 0.00 0.00 33 1006.8
20260506142026 26 45 0.0 0.0 0.00 0.00 0.00 32 1006.9
20260506141527 26 45 0.0 0.0 0.00 0.00 0.00 32 1007.0
20260506141028 26 45 0.0 1.6 0.00 0.00 0.00 31 1007.0
20260506140529 26 45 0.0 0.0 0.00 0.00 0.00 31 1007.1
20260506140030 27 45 0.0 1.6 0.00 0.00 0.00 30 1007.1
20260506135532 27 45 0.0 1.6 0.00 0.00 0.00 30 1007.3
20260506135034 27 45 0.0 1.6 0.00 0.00 0.00 31 1007.3
20260506134534 27 45 0.0 1.6 0.00 0.00 0.00 31 1007.4
20260506134040 27 45 0.0 1.6 0.00 0.00 0.00 30 1007.5
20260506134035 27 45 0.0 1.6 0.00 0.00 0.00 30 1007.5
20260506133536 28 45 0.0 0.0 0.00 0.00 0.00 31 1007.5
20260506133043 26 45 0.0 1.6 0.00 0.00 0.00 32 1007.6
20260506133038 26 45 0.0 1.6 0.00 0.00 0.00 32 1007.6
20260506132544 26 45 0.0 3.2 0.00 0.00 0.00 31 1007.8
20260506132539 26 45 0.0 3.2 0.00 0.00 0.00 31 1007.8
20260506132040 26 45 1.6 3.2 0.00 0.00 0.00 28 1007.8
20260506131541 27 45 0.0 3.2 0.00 0.00 0.00 27 1007.8
20260506131047 28 45 0.0 1.6 0.00 0.00 0.00 26 1007.8
20260506131042 28 45 0.0 1.6 0.00 0.00 0.00 26 1007.8
20260506130544 29 45 1.6 3.2 0.00 0.00 0.00 24 1008.0
20260506130045 29 48 1.6 1.6 0.00 0.00 0.00 26 1007.9
20260506125551 27 6 0.0 1.6 0.00 0.00 0.00 27 1008.0
20260506125546 27 6 0.0 1.6 0.00 0.00 0.00 27 1008.0
20260506125047 28 53 0.0 0.0 0.00 0.00 0.00 27 1008.0
20260506124548 28 20 1.6 3.2 0.00 0.00 0.00 27 1008.1
20260506124050 29 40 1.6 4.8 0.00 0.00 0.00 28 1008.1
20260506123551 26 45 0.0 1.6 0.00 0.00 0.00 30 1008.1
20260506123057 26 45 0.0 1.6 0.00 0.00 0.00 31 1008.3
20260506123052 26 45 0.0 1.6 0.00 0.00 0.00 31 1008.3
20260506122554 26 45 0.0 1.6 0.00 0.00 0.00 31 1008.3
20260506122054 26 45 0.0 0.0 0.00 0.00 0.00 31 1008.2
20260506121556 25 45 0.0 1.6 0.00 0.00 0.00 32 1008.2
20260506121057 25 45 0.0 1.6 0.00 0.00 0.00 33 1008.3
20260506120558 24 45 1.6 3.2 0.00 0.00 0.00 33 1008.3
20260506120059 23 45 0.0 1.6 0.00 0.00 0.00 35 1008.3
20260506115600 23 45 0.0 1.6 0.00 0.00 0.00 34 1008.3
20260506115102 23 45 0.0 0.0 0.00 0.00 0.00 35 1008.4
20260506114603 23 45 1.6 1.6 0.00 0.00 0.00 35 1008.5
20260506114104 23 45 0.0 0.0 0.00 0.00 0.00 35 1008.4
20260506113605 23 45 0.0 0.0 0.00 0.00 0.00 36 1008.5
20260506113106 23 45 1.6 3.2 0.00 0.00 0.00 35 1008.6
20260506112613 23 45 1.6 3.2 0.00 0.00 0.00 36 1008.7
20260506112608 23 45 1.6 3.2 0.00 0.00 0.00 36 1008.7
20260506112109 23 45 1.6 3.2 0.00 0.00 0.00 37 1008.7
20260506111610 22 101 1.6 3.2 0.00 0.00 0.00 37 1008.7
20260506111111 22 180 0.0 1.6 0.00 0.00 0.00 38 1008.7
20260506110612 22 164 1.6 1.6 0.00 0.00 0.00 38 1008.8
20260506110114 22 45 1.6 3.2 0.00 0.00 0.00 38 1008.8
20260506105615 22 45 0.0 1.6 0.00 0.00 0.00 38 1008.8
20260506105116 22 45 1.6 3.2 0.00 0.00 0.00 38 1008.8
20260506104617 22 45 0.0 1.6 0.00 0.00 0.00 39 1008.9
20260506104118 21 45 1.6 3.2 0.00 0.00 0.00 40 1008.9
20260506103620 21 45 1.6 1.6 0.00 0.00 0.00 40 1009.0
20260506103121 21 45 0.0 1.6 0.00 0.00 0.00 42 1009.2
20260506102622 21 45 0.0 1.6 0.00 0.00 0.00 42 1009.2
20260506102123 20 45 1.6 3.2 0.00 0.00 0.00 42 1009.2
20260506101625 20 45 1.6 3.2 0.00 0.00 0.00 43 1009.1
20260506101126 20 45 0.0 1.6 0.00 0.00 0.00 43 1009.1
20260506100627 20 45 1.6 3.2 0.00 0.00 0.00 44 1009.2
20260506100128 20 83 1.6 3.2 0.00 0.00 0.00 44 1009.2
20260506095629 20 106 1.6 4.8 0.00 0.00 0.00 43 1009.2
20260506095135 20 80 1.6 4.8 0.00 0.00 0.00 43 1009.2
20260506095130 20 80 1.6 4.8 0.00 0.00 0.00 43 1009.2
20260506094632 20 90 1.6 3.2 0.00 0.00 0.00 43 1009.2
20260506094134 20 131 1.6 1.6 0.00 0.00 0.00 45 1009.4
20260506093634 19 81 1.6 3.2 0.00 0.00 0.00 45 1009.3
20260506093135 19 89 0.0 1.6 0.00 0.00 0.00 46 1009.3
20260506092636 19 90 1.6 1.6 0.00 0.00 0.00 47 1009.4
20260506092138 18 98 1.6 4.8 0.00 0.00 0.00 47 1009.3
20260506091644 18 124 1.6 3.2 0.00 0.00 0.00 47 1009.4
20260506091639 18 124 1.6 3.2 0.00 0.00 0.00 47 1009.4
20260506091140 18 65 1.6 3.2 0.00 0.00 0.00 47 1009.3
20260506090641 18 72 1.6 3.2 0.00 0.00 0.00 48 1009.4
20260506090143 18 66 1.6 3.2 0.00 0.00 0.00 49 1009.3
20260506085649 18 90 1.6 3.2 0.00 0.00 0.00 50 1009.3
20260506085644 18 90 1.6 3.2 0.00 0.00 0.00 50 1009.3
20260506085145 18 86 1.6 3.2 0.00 0.00 0.00 50 1009.2
20260506084651 18 58 1.6 3.2 0.00 0.00 0.00 50 1009.3
20260506084646 18 58 1.6 3.2 0.00 0.00 0.00 50 1009.3
20260506084152 18 45 1.6 4.8 0.00 0.00 0.00 50 1009.4
20260506084147 18 45 1.6 4.8 0.00 0.00 0.00 50 1009.4
20260506083649 18 56 3.2 6.4 0.00 0.00 0.00 50 1009.2
20260506083150 17 49 1.6 4.8 0.00 0.00 0.00 51 1009.3
20260506082651 17 51 1.6 3.2 0.00 0.00 0.00 51 1009.3
20260506082152 17 58 1.6 3.2 0.00 0.00 0.00 51 1009.3
20260506081653 17 62 1.6 3.2 0.00 0.00 0.00 51 1009.3
20260506081155 17 61 1.6 4.8 0.00 0.00 0.00 51 1009.2
20260506080656 17 60 3.2 6.4 0.00 0.00 0.00 52 1009.3
20260506080157 17 52 3.2 4.8 0.00 0.00 0.00 51 1009.3
20260506073204 17 84 1.6 3.2 0.00 0.00 0.00 53 1009.4
20260506072706 17 77 1.6 4.8 0.00 0.00 0.00 53 1009.4
20260506072207 17 95 1.6 4.8 0.00 0.00 0.00 54 1009.3
20260506071708 17 67 3.2 6.4 0.00 0.00 0.00 54 1009.3
20260506071209 17 38 1.6 3.2 0.00 0.00 0.00 54 1009.2
20260506070715 17 90 1.6 3.2 0.00 0.00 0.00 54 1009.2
20260506070710 17 90 1.6 3.2 0.00 0.00 0.00 54 1009.2
20260506070217 17 106 1.6 4.8 0.00 0.00 0.00 54 1009.2
20260506070212 17 106 1.6 4.8 0.00 0.00 0.00 54 1009.2
20260506062221 16 47 1.6 3.2 0.00 0.00 0.00 60 1009.3
20260506061722 16 135 1.6 3.2 0.00 0.00 0.00 60 1009.1
20260506061224 16 151 1.6 6.4 0.00 0.00 0.00 61 1009.1
20260506060725 16 45 1.6 3.2 0.00 0.00 0.00 61 1009.1
20260506060226 16 45 1.6 3.2 0.00 0.00 0.00 62 1009.0
20260506051238 15 0 0.0 0.0 0.00 0.00 0.00 67 1008.6
20260506050739 15 0 0.0 1.6 0.00 0.00 0.00 68 1008.6
20260506050241 15 0 0.0 0.0 0.00 0.00 0.00 68 1008.7
20260506044744 15 0 0.0 0.0 0.00 0.00 0.00 67 1008.5
20260506044246 15 0 0.0 0.0 0.00 0.00 0.00 67 1008.3
20260506043747 15 0 0.0 0.0 0.00 0.00 0.00 67 1008.4
20260506043248 15 0 0.0 0.0 0.00 0.00 0.00 67 1008.4
20260506042749 15 0 0.0 0.0 0.00 0.00 0.00 66 1008.4
20260506042250 15 0 0.0 0.0 0.00 0.00 0.00 67 1008.3
20260506041751 15 0 0.0 0.0 0.00 0.00 0.00 67 1008.2
20260506041254 14 0 0.0 0.0 0.00 0.00 0.00 67 1008.0
20260506040759 14 0 0.0 0.0 0.00 0.00 0.00 67 1007.9
20260506040754 14 0 0.0 0.0 0.00 0.00 0.00 67 1007.9
20260506040255 14 0 0.0 0.0 0.00 0.00 0.00 69 1007.9
20260506035756 14 0 0.0 0.0 0.00 0.00 0.00 68 1007.9
20260506035258 14 0 0.0 0.0 0.00 0.00 0.00 68 1007.9
20260506034759 15 0 0.0 0.0 0.00 0.00 0.00 67 1007.9
20260506034300 15 0 0.0 0.0 0.00 0.00 0.00 67 1007.9
20260506033801 15 0 0.0 0.0 0.00 0.00 0.00 67 1007.9
20260506033302 15 0 0.0 1.6 0.00 0.00 0.00 66 1007.9
20260506032804 15 0 0.0 0.0 0.00 0.00 0.00 64 1007.9
20260506032306 15 0 0.0 0.0 0.00 0.00 0.00 63 1007.9
20260506031806 15 0 0.0 0.0 0.00 0.00 0.00 62 1007.9
20260506031307 15 0 0.0 0.0 0.00 0.00 0.00 62 1007.7
20260506030808 15 0 0.0 0.0 0.00 0.00 0.00 63 1007.7
20260506030310 15 0 0.0 0.0 0.00 0.00 0.00 63 1007.6
20260506025811 15 0 0.0 0.0 0.00 0.00 0.00 63 1007.5
20260506025312 15 0 0.0 0.0 0.00 0.00 0.00 64 1007.4
20260506024813 15 0 0.0 1.6 0.00 0.00 0.00 64 1007.4
20260506024314 15 0 0.0 1.6 0.00 0.00 0.00 63 1007.3
20260506023816 15 0 0.0 0.0 0.00 0.00 0.00 61 1007.3
20260506023317 15 0 0.0 0.0 0.00 0.00 0.00 61 1007.3
20260506022823 15 0 0.0 0.0 0.00 0.00 0.00 60 1007.3
20260506022818 15 0 0.0 0.0 0.00 0.00 0.00 60 1007.3
20260506022319 15 0 0.0 0.0 0.00 0.00 0.00 57 1007.2
20260506021821 15 0 0.0 0.0 0.00 0.00 0.00 55 1007.3
20260506021322 15 0 0.0 0.0 0.00 0.00 0.00 55 1007.3
20260506020823 15 0 0.0 0.0 0.00 0.00 0.00 55 1007.3
20260506020324 16 0 0.0 0.0 0.00 0.00 0.00 55 1007.5
20260506015825 16 0 0.0 1.6 0.00 0.00 0.00 55 1007.5
20260506015327 16 0 0.0 0.0 0.00 0.00 0.00 54 1007.6
20260506014828 16 0 0.0 0.0 0.00 0.00 0.00 53 1007.4
20260506014329 16 0 0.0 0.0 0.00 0.00 0.00 52 1007.4
20260506013836 16 0 0.0 0.0 0.00 0.00 0.00 51 1007.5
20260506013830 16 0 0.0 0.0 0.00 0.00 0.00 51 1007.5
20260506013332 16 0 0.0 0.0 0.00 0.00 0.00 51 1007.5
20260506012334 16 0 0.0 0.0 0.00 0.00 0.00 49 1007.3
20260506011835 16 0 0.0 0.0 0.00 0.00 0.00 48 1007.3
20260506010838 16 0 0.0 0.0 0.00 0.00 0.00 48 1007.2
20260506010344 16 0 0.0 0.0 0.00 0.00 0.00 46 1007.2
20260506010339 16 0 0.0 0.0 0.00 0.00 0.00 46 1007.2
20260506005840 16 0 0.0 0.0 0.00 0.00 0.00 46 1007.1
20260506005341 16 0 0.0 0.0 0.00 0.00 0.00 46 1007.1
20260506004847 16 0 0.0 0.0 0.00 0.00 0.00 46 1007.2
20260506004842 16 0 0.0 0.0 0.00 0.00 0.00 46 1007.2
20260506004344 16 0 0.0 0.0 0.00 0.00 0.00 46 1007.3
20260506003845 16 0 0.0 0.0 0.00 0.00 0.00 46 1007.2
20260506003346 16 0 0.0 0.0 0.00 0.00 0.00 46 1007.1
20260506002847 16 0 0.0 0.0 0.00 0.00 0.00 45 1007.2
20260506002354 16 0 0.0 0.0 0.00 0.00 0.00 45 1007.3
20260506002348 16 0 0.0 0.0 0.00 0.00 0.00 45 1007.3